User: anonymous   Login
Location: Quaker Farms
(41.4276°N, 73.1557°W)
Time: 01:28:27
(UTC+00:00)
Language:

Vanguard 2 Rocket - Orbit

View from above orbital plane
View from above orbital plane
View from above satellite
View from above satellite

Ground track
Ground track

The orbit data is extracted from the following two-line orbital elements,

1 00012U 59001B   21163.40135801 -.00000014  00000-0 -19540-4 0  9993
2 00012  32.8966 171.4687 1666018 168.4987 195.9069 11.44392238321220
Epoch (UTC): 12 June 2021 09:37:57
Eccentricity: 0.1666018
inclination: 32.8966°
perigee height: 554 km
apogee height: 3325 km
right ascension of ascending node: 171.4687°
argument of perigee: 168.4987°
revolutions per day: 11.44392238
mean anomaly at epoch: 195.9069°
orbit number at epoch: 32122

The dashed part of the orbit path shows where the satellite is in the earth's shadow,  

DLR